This demonstration page uses our WeatherBlox Daily Observations layout. Learn more.

Left ArrowRight Arrow

Hourly Observations for May 4, 2016

Temp ( °F °C ) Dew Point ( °F °C ) Humidity (%) Winds ( mph kmh ) Pressure ( in mb ) Visibility ( mi km ) Precip ( " mm )
12:52 am 00:52 Partly Cloudy 51 10.6 41 5 69 69 SW 8 13 29.95 1014 10 16 0.00 0.00
1:52 am 01:52 Mostly Clear 50 10 41 5 71 71 SW 8 13 29.93 1014 10 16 0.00 0.00
2:52 am 02:52 Partly Cloudy 51 10.6 42 5.6 71 71 SW 9 15 29.91 1013 10 16 0.00 0.00
3:52 am 03:52 Clear 52 11.1 43 6.1 72 72 SW 9 15 29.89 1012 10 16 0.00 0.00
4:52 am 04:52 Clear 55 12.8 43 6.1 64 64 WSW 13 20 29.87 1012 10 16 0.00 0.00
5:52 am 05:52 Clear 55 12.8 43 6.1 64 64 WSW 14 22 29.85 1011 10 16 0.00 0.00
6:52 am 06:52 Sunny 54 12.2 43 6.1 67 67 WSW 12 19 29.85 1011 10 16 0.00 0.00
7:52 am 07:52 Sunny 57 13.9 44 6.7 62 62 W 13 20 29.85 1011 10 16 0.00 0.00
8:52 am 08:52 Sunny 61 16.1 45 7.2 56 56 WNW 13 20 29.87 1012 10 16 0.00 0.00
9:52 am 09:52 Sunny 63 17.2 44 6.7 50 50 NW 15 24 29.88 1012 10 16 0.00 0.00
10:52 am 10:52 Sunny 66 18.9 41 5 40 40 NW 18 30 29.89 1012 10 16 0.00 0.00
11:52 am 11:52 Sunny 69 20.6 41 5 36 36 NNW 20 31 29.90 1013 10 16 0.00 0.00
12:52 pm 12:52 Sunny 69 20.6 36 2.2 30 30 NNW 25 41 29.91 1013 10 16 0.00 0.00
1:52 pm 13:52 Sunny 70 21.1 36 2.2 29 29 NNW 20 31 29.90 1013 10 16 0.00 0.00
2:52 pm 14:52 Sunny 71 21.7 39 3.9 31 31 NW 21 33 29.90 1013 10 16 0.00 0.00
3:52 pm 15:52 Sunny 71 21.7 40 4.4 32 32 N 18 30 29.90 1013 10 16 0.00 0.00
4:52 pm 16:52 Sunny 70 21.1 37 2.8 30 30 N 18 30 29.90 1013 10 16 0.00 0.00
5:52 pm 17:52 Sunny 69 20.6 39 3.9 33 33 NNW 15 24 29.91 1013 10 16 0.00 0.00
6:52 pm 18:52 Sunny 67 19.4 38 3.3 35 35 NNW 15 24 29.91 1013 10 16 0.00 0.00
7:52 pm 19:52 Sunny 60 15.6 39 3.9 46 46 NNW 8 13 29.92 1013 10 16 0.00 0.00
8:52 pm 20:52 Clear 57 13.9 38 3.3 49 49 N 6 9 29.93 1014 10 16 0.00 0.00
9:52 pm 21:52 Clear 58 14.4 37 2.8 46 46 NW 5 7 29.95 1014 10 16 0.00 0.00
10:52 pm 22:52 Clear 55 12.8 37 2.8 51 51 NW 3 6 29.96 1015 10 16 0.00 0.00
11:52 pm 23:52 Clear 53 11.7 38 3.3 57 57 NW 5 7 29.97 1015 10 16 0.00 0.00

Powered by AerisWeather